Location: Pella
(41.4080°N, 92.9160°W)
Time: 17:32:01
(UTC-05:00)

ASTRO E2 - Visible Passes

Search period start: 28 July 2014 00:00
Search period end: 07 August 2014 00:00
Orbit: 535 x 543 km, 31.4° (Epoch: 27 July)

Date Brightness Start Highest point End Pass type
(mag) Time Alt. Az. Time Alt. Az. Time Alt. Az.
28 Jul 4.4 04:15:14 19° SSE 04:15:14 19° SSE 04:17:54 10° SE visible
29 Jul 4.5 04:05:38 18° SSE 04:05:38 18° SSE 04:07:39 10° SE visible
30 Jul 4.8 03:56:07 15° SE 03:56:07 15° SE 03:57:21 10° SE visible
30 Jul 4.6 05:32:10 10° SW 05:34:37 15° SSW 05:37:03 10° SSE visible
31 Jul 5.2 03:46:45 11° SE 03:46:45 11° SE 03:47:01 10° SE visible
31 Jul 4.7 05:22:12 10° SW 05:24:16 14° SSW 05:26:19 10° SSE visible
01 Aug 4.8 05:12:56 11° SSW 05:13:54 12° SSW 05:15:21 10° S visible
